Location: Rounton
(54.4000°N, 1.3500°W)
Time: 11:25:27
(UTC+01:00)

Vanguard 1 - Pass Details

Date: 27 February 2024
Orbit: 653 x 3825 km, 34.2° (Epoch: 22 April)

Event Time Altitude Azimuth Distance (km) Brightness Sun altitude
Rises 00:21:21 0° 268° (W) 6,841 14.4 -44.2°
Reaches altitude 10° 00:26:16 10° 259° (W) 6,189 14.0 -44.2°
Enters shadow 00:31:18 20° 248° (WSW) 5,679 13.6 -44.1°
